Погода в Санта-Ане

Коста-Рика     9°55′41″N   84°11′32″W
темп.,
°C
ветер,
м/с
пор.,
м/с
влажн.,
%
обл.,
%
осадки,
мм/ч
давл.,
гПа
погр.,
м
18 апреля, вс
вс1800:00+18в1195100 9.1 101411
03:00+18ссв1192100 0.0 101211
06:00+18ссв119395 0.0 101416
09:00+25юз1167100 0.0 1014867
12:00+24з227469 2.3 1012916
15:00+22з1290100 9.9 1010245
18:00+19с1298100 25.3 1011102
21:00+18в2499100 43.1 1015211
19 апреля, пн
пн1900:00+18св2195100 45.8 101433
03:00+18всв119396 0.0 101315
06:00+18св229199 0.0 101437
09:00+23сз0173100 0.0 1014393
12:00+27юз3257100 0.3 10121549
15:00+22зюз2287100 5.1 1010455
18:00+20ююз0196100 11.7 101212
21:00+19с0098100 6.2 101520
20 апреля, вт
вт2000:00+19зюз1299100 11.0 1014166
03:00+19в0199100 2.5 101385
06:00+19ссв1195100 3.3 101417
09:00+21зюз1288100 1.4 1016257
12:00+20ююз1193100 3.0 1014185
15:00+20всв1195100 1.5 101228
18:00+19св119474 2.4 101313
21:00+18в119654 1.6 101513
21 апреля, ср
ср2100:00+17св119741 2.2 101512
03:00+17св119652 0.0 101314
06:00+18св219435 0.0 101437
09:00+24сз1176100 0.6 1015684
12:00+23з1180100 4.3 1013705
15:00+21зюз1191100 5.0 101170
18:00+19ссв1194100 9.8 101318
21:00+18св2295100 2.0 101533
22 апреля, чт
чт2200:00+17св22955 2.1 101453
03:00+17св23958 0.0 101359
06:00+17св23946 0.0 101476
09:00+23св2468100 0.0 10141033
12:00+27св2256100 0.2 10111677
15:00+23з017998 2.1 1010668
18:00+20св1294100 4.1 101265
21:00+18св239659 0.0 101585